Goteborg Save AFB, Sweden

11:23 PM CET on March 25, 2017 (GMT +0100)
Save Air Base

Weather History for ESGP - February, 2014

Change the Weather History Date:

Friday, February 28, 2014

  Actual Average Record
Temperature  
Mean Temperature 42 °F -  
Max Temperature 44 °F 40 °F - ()
Min Temperature 39 °F 28 °F - ()
Degree Days  
Heating Degree Days 24    
Moisture  
Dew Point 38 °F    
Average Humidity 88    
Maximum Humidity 93    
Minimum Humidity 81    
Precipitation  
Precipitation 0.00 in 0.06 in - ()
Sea Level Pressure  
Sea Level Pressure 29.74 in    
Wind  
Wind Speed 6 mph ()    
Max Wind Speed 14 mph    
Max Gust Speed -    
Visibility 3.1 miles    
Events Rain    
T = Trace of Precipitation, MM = Missing Value Source: Averaged Metar Reports

Daily Weather History Graph

Daily Weather History Graph

Search for Another Location

Airport or City:

Trip Planner

Search our weather history database for the weather conditions in past years. The results will help you decide how hot, cold, wet, or windy it might be!

Date:

Astronomy

Feb. 28, 2014 Rise Set
Actual Time 7:10 AM CET 5:41 PM CET
Civil Twilight 6:30 AM CET 6:20 PM CET
Nautical Twilight 5:45 AM CET 7:05 PM CET
Astronomical Twilight 5:00 AM CET 7:51 PM CET
Moon 6:19 AM CET (2/28) 4:56 PM CET (2/28)
Length of Visible Light 11h 49m
Length of Day
10h 31m
Waning Crescent, 1% of the Moon is Illuminated
Feb 28
Waning Crescent
Mar 1
New
Mar 8
First Quarter
Mar 16
Full
Mar 24
Last Quarter

Hourly Weather History & Observations

Time (CET) Temp. Windchill Dew Point Humidity Pressure Visibility Wind Dir Wind Speed Gust Speed Precip Events Conditions
12:20 AM 41.0 °F 37.1 °F 37.4 °F 87% 29.83 in 3.7 mi East 5.8 mph - N/A   Overcast
12:50 AM 41.0 °F 38.0 °F 37.4 °F 87% 29.83 in 3.7 mi East 4.6 mph - N/A   Overcast
1:20 AM 39.2 °F 35.9 °F 37.4 °F 93% 29.80 in 3.7 mi ESE 4.6 mph - N/A   Mostly Cloudy
1:50 AM 41.0 °F 38.0 °F 37.4 °F 87% 29.80 in 3.1 mi ESE 4.6 mph - N/A   Mostly Cloudy
2:20 AM 41.0 °F 37.1 °F 37.4 °F 87% 29.80 in 3.1 mi ESE 5.8 mph - N/A   Overcast
2:50 AM 41.0 °F 38.0 °F 37.4 °F 87% 29.80 in - ESE 4.6 mph - N/A   Mostly Cloudy
3:20 AM 41.0 °F 38.0 °F 37.4 °F 87% 29.77 in 3.1 mi ESE 4.6 mph - N/A   Mostly Cloudy
3:50 AM 41.0 °F 37.1 °F 37.4 °F 87% 29.77 in - ESE 5.8 mph - N/A   Overcast
4:20 AM 41.0 °F 37.1 °F 37.4 °F 87% 29.77 in - East 5.8 mph - N/A   Overcast
4:50 AM 41.0 °F 37.1 °F 39.2 °F 93% 29.77 in - East 5.8 mph - N/A   Overcast
5:20 AM 41.0 °F 35.2 °F 39.2 °F 93% 29.74 in - ESE 9.2 mph - N/A   Clear
5:50 AM 41.0 °F 34.7 °F 39.2 °F 93% 29.74 in - ESE 10.4 mph - N/A   Overcast
6:20 AM 42.8 °F 38.0 °F 39.2 °F 87% 29.74 in - ESE 8.1 mph - N/A   Overcast
6:50 AM 42.8 °F 38.0 °F 39.2 °F 87% 29.74 in - ESE 8.1 mph - N/A   Mostly Cloudy
7:20 AM 41.0 °F 35.8 °F 39.2 °F 93% 29.74 in - ESE 8.1 mph - N/A   Mostly Cloudy
7:50 AM 41.0 °F 35.8 °F 37.4 °F 87% 29.74 in 2.8 mi ESE 8.1 mph - N/A   Mostly Cloudy
8:20 AM 41.0 °F 35.8 °F 37.4 °F 87% 29.74 in - ESE 8.1 mph - N/A   Overcast
8:51 AM 42.8 °F 37.5 °F 37.4 °F 81% 29.74 in 3.1 mi SE 9.2 mph - N/A Rain Light Rain
9:21 AM 41.0 °F 34.7 °F 37.4 °F 87% 29.74 in - SE 10.4 mph - N/A Rain Light Rain
9:50 AM 42.8 °F 38.6 °F 39.2 °F 87% 29.74 in - SE 6.9 mph - N/A   Mostly Cloudy
10:20 AM 42.8 °F 37.5 °F 39.2 °F 87% 29.74 in - ESE 9.2 mph - N/A   Overcast
10:50 AM 42.8 °F 37.5 °F 39.2 °F 87% 29.74 in - ESE 9.2 mph - N/A   Overcast
11:20 AM 44.6 °F 39.2 °F 39.2 °F 81% 29.74 in 3.1 mi ESE 10.4 mph - N/A   Mostly Cloudy
11:50 AM 42.8 °F 36.6 °F 37.4 °F 81% 29.74 in 3.1 mi ESE 11.5 mph - N/A   Mostly Cloudy
12:20 PM 42.8 °F 37.5 °F 39.2 °F 87% 29.74 in 3.1 mi SE 9.2 mph - N/A   Mostly Cloudy
12:50 PM 42.8 °F 38.6 °F 37.4 °F 81% 29.74 in 3.7 mi SE 6.9 mph - N/A   Overcast
1:20 PM 42.8 °F 37.5 °F 37.4 °F 81% 29.74 in 4.3 mi ESE 9.2 mph - N/A   Overcast
1:50 PM 42.8 °F 38.6 °F 37.4 °F 81% 29.71 in 3.7 mi SE 6.9 mph - N/A   Drizzle
2:20 PM 42.8 °F 38.0 °F 37.4 °F 81% 29.71 in 3.7 mi ESE 8.1 mph - N/A   Drizzle
2:50 PM 41.0 °F 34.7 °F 37.4 °F 87% 29.71 in - ESE 10.4 mph - N/A   Drizzle
3:20 PM 41.0 °F 33.5 °F 37.4 °F 87% 29.71 in - ESE 13.8 mph - N/A Rain Rain
3:50 PM 39.2 °F 33.0 °F 37.4 °F 93% 29.71 in - ESE 9.2 mph - N/A Rain Light Rain
4:20 PM 39.2 °F 33.0 °F 37.4 °F 93% 29.71 in - SE 9.2 mph - N/A Rain Light Rain
4:58 PM 39.2 °F 35.9 °F 37.4 °F 93% 29.71 in - ESE 4.6 mph - N/A   Drizzle
5:20 PM 39.2 °F 37.0 °F 37.4 °F 93% 29.71 in - East 3.5 mph - N/A Rain Light Rain
5:50 PM 39.2 °F - 37.4 °F 93% 29.71 in 1.5 mi ENE 2.3 mph - N/A   Drizzle
6:20 PM 41.0 °F 39.0 °F 39.2 °F 93% 29.71 in 1.6 mi East 3.5 mph - N/A   Light Drizzle
6:50 PM 41.0 °F 39.0 °F 39.2 °F 93% 29.71 in 1.9 mi East 3.5 mph - N/A   Overcast
7:20 PM 41.0 °F 39.0 °F 39.2 °F 93% 29.71 in - East 3.5 mph - N/A   Overcast
7:50 PM 41.0 °F 37.1 °F 37.4 °F 87% 29.71 in 2.5 mi ESE 5.8 mph - N/A   Overcast
8:20 PM 41.0 °F 37.1 °F 37.4 °F 87% 29.71 in - ESE 5.8 mph - N/A   Overcast
8:50 PM 41.0 °F 36.4 °F 37.4 °F 87% 29.71 in - East 6.9 mph - N/A   Overcast
9:20 PM 41.0 °F 37.1 °F 37.4 °F 87% 29.71 in - ESE 5.8 mph - N/A   Mostly Cloudy
9:50 PM 41.0 °F 35.8 °F 37.4 °F 87% 29.71 in - ESE 8.1 mph - N/A   Mostly Cloudy
10:20 PM 41.0 °F 36.4 °F 37.4 °F 87% 29.71 in - ESE 6.9 mph - N/A   Overcast
10:50 PM 41.0 °F 36.4 °F 37.4 °F 87% 29.71 in - ESE 6.9 mph - N/A Rain Light Rain
11:20 PM 41.0 °F 37.1 °F 37.4 °F 87% 29.71 in - ESE 5.8 mph - N/A   Overcast
11:50 PM 41.0 °F 38.0 °F 37.4 °F 87% 29.71 in 3.1 mi SE 4.6 mph - N/A   Overcast